Location: Wroclaw
(51.1000°N, 17.0330°E)
Time: 13:27:00
(UTC+01:00)

X-37B - Visible Passes

Search period start: 08 December 2022 00:00
Search period end: 18 December 2022 00:00
Orbit: 277 x 277 km, 45.0° (Epoch: 01 November)

Date Brightness Start Highest point End Pass type
(mag) Time Alt. Az. Time Alt. Az. Time Alt. Az.
11 Dec 2.6 17:02:34 10° SSW 17:03:51 13° SSE 17:05:09 10° SE visible
12 Dec 2.4 17:02:43 10° SSW 17:04:23 16° SSE 17:05:57 10° SE visible
13 Dec 2.2 17:03:04 10° SW 17:04:54 19° S 17:06:37 11° SE visible
14 Dec 2.2 17:03:32 10° SW 17:05:27 20° S 17:07:19 10° SE visible
15 Dec 2.3 17:04:07 10° SW 17:06:00 19° S 17:07:52 10° SE visible
16 Dec 2.6 17:04:46 10° SW 17:06:32 17° S 17:08:18 10° SE visible
17 Dec 2.9 17:05:34 10° SW 17:07:04 15° SSW 17:08:33 10° SSE visible
